Miscellaneous Local Product
Issued by NWS Hastings, NE

Home | Current Version | Previous Version | Text Only | Print | Product List | Glossary Off
Versions: 1 2 3 4 5 6 7 8 9 10 11 12 13 14 15 16 17 18 19 20 21 22 23 24 25 26 27 28 29 30 31 32 33 34 35 36 37 38 39 40 41 42 43 44 45 46 47 48 49 50

435
AXUS43 KGID 140502
MISGRI

GID CWA HOURLY WEATHER ROUNDUP
NATIONAL WEATHER SERVICE HASTINGS NE
1100 PM CST SAT FEB 13 2016

NOTE: "FAIR" INDICATES FEW OR NO CLOUDS BELOW 12,000 FEET WITH NO
SIGNIFICANT WEATHER AND/OR OBSTRUCTIONS TO VISIBILITY.

...SOUTH CENTRAL NEBRASKA...

CITY           SKY/WX    TMP DP  RH WIND       PRES   REMARKS
GRAND ISLAND   CLOUDY    17   8  67 S14       30.03F WCI   3
HASTINGS       CLOUDY    18   7  62 SE10      30.03F WCI   6
KEARNEY        CLOUDY    18   9  68 S9        30.03R WCI   6
ORD            CLOUDY    18   9  68 S12       29.99S WCI   5
YORK           CLOUDY    19   9  63 SE15G21   30.06F WCI   5
AURORA         CLOUDY    18   9  68 SE13      30.05F WCI   5
LEXINGTON      CLOUDY    22  13  70 SW6       30.04R WCI  14
HOLDREGE       CLOUDY    19  13  74 S7        30.00F WCI  10
HEBRON         CLOUDY    21   7  55 SE14      30.08F WCI   8

...NEBRASKA PANHANDLE...

CITY           SKY/WX    TMP DP  RH WIND       PRES   REMARKS
CHADRON        CLEAR     34  30  85 W10       29.97S WCI  26
ALLIANCE       CLEAR     34  29  82 NW20      29.97R WCI  23
SCOTTSBLUFF    CLEAR     33  27  78 NW12      30.03R WCI  24
SIDNEY         PTCLDY    34  29  82 NW16      30.03R WCI  24

...WESTERN AND NORTH CENTRAL NEBRASKA...

CITY           SKY/WX    TMP DP  RH WIND       PRES   REMARKS
VALENTINE      CLOUDY    35  31  85 NW21G31   29.82R WCI  24
AINSWORTH      CLOUDY    32  28  86 SW17G28   29.81F WCI  21
ONEILL         CLOUDY    20  11  66 S22G32    29.95F WCI   4
BROKEN BOW     MOCLDY    22  13  68 W8        29.99R WCI  12
IMPERIAL       CLEAR     26  23  88 W3        30.00F
NORTH PLATTE   MOCLDY    28  24  85 SW3       29.97F
MCCOOK         CLOUDY    25  19  78 W6        30.03R WCI  18

...EASTERN NEBRASKA...

CITY           SKY/WX    TMP DP  RH WIND       PRES   REMARKS
NORFOLK        CLOUDY    16   7  67 SE15      30.04F WCI   1
SO SIOUX CITY  CLOUDY    18   8  65 SE14      30.13F WCI   4
TEKAMAH        CLOUDY    18   6  59 SE18      30.15F WCI   2
COLUMBUS       CLOUDY    18   0  45 SE15G22   30.08F WCI   3
ALBION         CLOUDY    17   9  70 S13       30.04R WCI   3
OMAHA EPPLEY   CLOUDY    19   4  51 SE20      30.19F WCI   3
OFFUTT AFB     CLOUDY    19   3  49 SE18      30.17F WCI   4
MILLARD        CLOUDY    20   5  52 SE8       30.19F WCI  10
LINCOLN        MOCLDY    20   6  55 SE14      30.14F WCI   7
NEBRASKA CITY  CLOUDY    19   1  45 SE12G17   30.18F WCI   7
BEATRICE       CLOUDY    19   5  53 SE10      30.12F WCI   8
FALLS CITY     CLOUDY    21   2  43 SE14G22   30.19F WCI   8

...NORTHERN KANSAS...

CITY           SKY/WX    TMP DP  RH WIND       PRES   REMARKS
GOODLAND       CLOUDY    29  25  85 NW13G18   30.02R WCI  19
HILL CITY      CLOUDY    27  20  75 N5        30.01R WCI  22
NORTON         CLEAR     25  16  68 S7        30.00R WCI  17
PHILLIPSBURG   CLOUDY    27  16  63 CALM      30.02F
SMITH CENTER   CLEAR     21  12  68 E13       30.04R WCI   9
BELOIT         CLEAR     21   9  58 E9        30.05F WCI  11
HAYS           CLOUDY    28  12  50 CALM      29.98S
RUSSELL        CLOUDY    30  16  56 E7        29.98F WCI  23
CONCORDIA      CLOUDY    21   7  54 SE13G21   30.06F WCI   9
SALINA         MOCLDY    26   8  46 E13       30.04F WCI  15
TOPEKA         CLOUDY    23   4  44 E9        30.17F WCI  13



USA.gov is the U.S. government's official web portal to all federal, state and local government web resources and services.